SCP
0 0 0 0 0 0 0 0 0 0 0 0 0 0 0 0 0 0 0 0 0 0 0 0 0 0 0 0 0 0 0 -0 0 0 -0 0 0 0 0 -0 -0 0 0 0 0 0 0 0 0 0 0 0 0 0
0 0 0 0 0 0 0 0 0 0 0 0 0 0 0 0 0 0 0 0 0 0 0 0 0 0 0 -0 0 0 0 0 0 0 0 0 0 0 0 -0 0 0 0 0 0 0 0 0 0 0 0 0 0 0
0 0 0 0 0 0 0 0 0 0 0 0 0 0 0 0 0 0 0 0 0 0 0 0 0 0 0 0 0 0 0 0 -0 0 0 -0 0 0 0 0 0 0 0 0 0 0 0 0 0 0 0 0 0 0
0 0 0 0 0 0 0 0 0 0 0 0 0 0 0 0 0 0 0 0 0 0 0 0 0 0 0 0 0 0 0 0 -0 -0 -0 0 -0 0 0 0 0 0 0 0 0 0 0 0 0 0 0 0 0 0
0 0 0 0 0 0 0 0 0 0 0 0 0 0 0 0 0 0 0 0 0 0 0 0 0 0 -0 0 0 -0 0 -0 0 -0 -0 -0 0 -0 -0 0 0 -0 0 0 0 0 0 0 0 0 0 0 0 0
0 0 0 0 0 0 0 0 0 0 0 0 0 -0 0 0 0 0 0 0 0 0 0 0 0 0 0 0 0 0 0 -0 0 0 0 0 0 0 -0 -0 0 0 -0 -0 -0 0 0 0 0 0 0 0 0 0
0 0 0 0 0 0 0 0 0 0 0 0 0 -0 0 0 0 0 0 0 0 0 0 0 0 0 0 0 0 0 0 0 -0 0 0 0 0 -0 0 0 0 0 0 -0 -0 -0 0 0 0 0 0 0 0 0
0 0 0 0 0 0 0 0 0 0 0 0 0 0 0 0 0 0 0 0 0 0 0 0 0 0 0 0 0 0 0 0 0 0 -0 -0 -0 -0 0 0 -0 0 0 0 0 -0 -0 0 0 0 0 0 0 0
0 0 0 0 0 0 0 0 0 0 0 0 0 0 0 0 0 0 0 0 0 0 0 0 0 0 0 0 0 0 0 0 0 -0 0 -0 0 -0 -0 -0 0 -0 -0 0 0 0 -0 -0 0 0 0 0 0 0
0 0 0 0 0 0 0 0 0 0 0 0 0 0 0 0 0 0 0 0 0 0 0 0 0 0 0 0 0 0 0 0 0 0 0 0 -0 -0 -0 -0 -0 0 0 0 0 0 0 0 -0 0 0 0 0 0
0 0 0 0 0 0 0 0 0 -0 0 0 0 0 0 0 0 0 0 0 0 0 0 0 0 0 0 0 0 0 0 0 0 0 0 -0 -0 0 0 0 -0 -0 -0 0 0 0 0 0 0 0 0 0 0 0
0 0 0 0 0 -0 -0 0 0 0 0 0 0 0 0 0 0 0 0 0 0 0 0 0 0 0 0 0 0 0 0 0 0 0 0 0 0 0 0 -0 0 -0 -0 0 0 0 0 0 0 0 0 0 0 0
-0 -0 -0 0 0 -0 0 0 0 0 0 0 0 0 0 0 0 0 0 0 -0 0 0 0 0 0 0 0 0 0 0 0 0 0 0 0 0 0 0 -0 0 0 -0 0 0 0 0 0 0 0 0 0 0 0
-0 -0 -0 0 0 0 0 0 0 0 0 0 0 0 0 0 0 0 0 0 0 0 0 0 0 0 0 0 0 0 0 0 0 0 0 0 0 0 0 0 -0 0 0 -0 0 0 0 0 0 0 0 0 0 0
0 -0 -0 0 0 0 0 0 0 0 0 0 0 0 0 0 0 0 0 0 0 0 0 0 0 0 0 0 0 0 0 0 0 0 0 0 0 0 0 0 0 0 -0 0 -0 0 0 0 0 0 0 0 0 0
0 0 0 0 0 0 0 0 0 0 0 0 0 0 0 0 0 0 0 0 0 0 0 0 0 0 0 0 0 0 0 0 0 0 0 0 0 0 0 -0 0 0 0 -0 0 -0 -0 0 0 0 0 0 0 0
0 0 0 0 0 0 0 0 0 0 0 0 0 0 0 0 0 0 0 0 0 0 0 0 0 0 0 0 0 0 0 0 0 0 0 0 0 0 0 -0 -0 -0 -0 -0 -0 0 0 0 0 0 0 0 0 0
0 0 0 0 0 -0 0 0 0 0 0 0 0 0 0 0 0 0 0 0 0 0 0 0 0 0 0 0 0 0 0 0 0 0 -0 -0 0 -0 0 -0 -0 -0 -0 -0 -0 -0 -0 -0 -0 0 0 0 0 0
0 0 0 0 0 -0 0 0 0 0 0 0 0 0 0 0 0 0 0 0 0 0 0 0 0 0 0 0 0 0 0 0 0 0 -0 -0 0 -0 -0 -0 -0 -0 -0 -0 -0 -0 -0 -0 -0 -0 0 0 0 0
0 0 0 0 0 0 0 0 0 0 0 0 0 0 0 0 0 0 0 0 0 0 0 0 0 0 0 0 0 0 0 0 0 0 0 0 0 0 0 -0 -0 -0 -0 -0 -0 -0 -0 -0 -0 -0 -0 0 0 0
0 0 0 0 0 0 0 0 0 0 0 0 0 0 0 0 0 0 0 0 0 0 0 0 0 0 0 0 0 0 0 0 0 0 0 0 0 0 0 -0 -0 -0 -0 -0 -0 -0 -0 -0 -0 -0 -0 -0 0 0
0 0 0 0 0 0 0 0 0 0 0 0 0 0 0 0 0 0 0 0 0 0 0 0 0 0 0 0 0 0 0 0 0 0 0 0 0 0 0 0 -0 -0 -0 -0 -0 -0 -0 -0 -0 -0 -0 -0 -0 -0
0 0 0 0 0 0 0 0 0 0 0 0 0 0 0 0 0 0 0 0 0 0 0 0 0 0 0 0 0 0 0 0 0 0 0 0 0 0 0 0 0 -0 -0 -0 -0 -0 -0 -0 -0 -0 -0 -0 -0 -0
0 0 0 0 0 0 0 0 0 0 0 0 0 0 0 0 0 0 0 0 0 0 0 0 0 0 0 0 0 0 0 0 0 0 0 0 0 0 0 0 0 0 -0 -0 -0 -0 -0 -0 -0 -0 -0 -0 -0 -0
0 0 0 0 0 0 0 0 0 0 0 0 0 0 0 0 0 0 0 0 0 0 0 0 0 0 0 0 0 0 0 0 0 0 0 0 0 0 0 0 0 0 0 0 -0 -0 -0 -0 -0 -0 -0 -0 -0 -0
0 0 0 0 0 0 0 0 0 0 0 0 0 0 0 0 0 0 0 0 0 0 0 0 0 0 0 0 0 0 0 0 0 0 0 0 0 0 0 0 0 0 0 0 0 0 -0 -0 -0 -0 -0 0 0 -0
0 0 0 0 0 0 0 0 0 0 0 0 0 0 0 0 0 0 0 0 0 0 0 0 0 0 0 0 0 0 0 0 0 0 0 0 0 0 0 0 0 0 0 0 0 0 0 0 0 -0 -0 -0 0 0
0 0 0 0 0 0 0 0 0 0 0 0 0 0 0 0 0 0 0 0 0 0 0 0 0 0 0 0 0 0 0 0 0 0 0 0 0 0 0 0 0 0 0 0 0 0 0 0 0 0 0 0 0 0
0 0 0 0 0 0 0 0 0 0 0 0 0 0 0 0 0 0 0 0 0 0 0 0 0 0 0 0 0 0 0 0 0 0 0 0 0 0 0 0 0 0 0 0 0 0 0 0 0 0 0 0 0 0
0 0 0 0 0 0 0 0 0 0 0 0 0 0 0 0 0 0 0 0 0 0 0 0 0 0 0 0 0 0 0 0 0 0 0 0 0 0 0 0 0 0 0 0 0 0 0 0 0 0 0 0 0 0
0 0 0 0 0 0 0 0 0 0 0 0 0 0 0 0 0 0 0 0 0 0 0 0 0 0 0 0 0 0 0 0 0 0 0 0 0 0 0 0 0 0 0 0 0 0 0 0 0 0 0 0 0 0
0 0 0 0 0 0 0 0 0 0 0 0 0 0 0 0 0 0 0 0 0 0 0 0 0 0 0 0 0 0 0 0 0 0 0 0 0 0 0 0 0 0 0 0 0 0 0 0 0 0 0 0 0 0
0 0 0 0 0 0 0 0 0 0 0 0 0 0 0 0 0 0 0 0 0 0 0 0 0 0 0 0 0 0 0 0 0 0 0 0 0 0 0 0 0 0 0 0 0 0 0 0 0 0 0 0 0 0
Wind_Speed_500mb
55 58 62 66 65 63 62 55 51 57 65 67 65 52 32 21 17 21 29 28 24 18 49 38 30 25 24 21 7 18 15 5 5 10 5 5 5 4 3 3 5 4 1 5 4 5 2 36 14 14 13 30 36 39
55 57 60 63 65 63 62 57 50 61 65 66 64 49 32 22 14 20 25 14 16 26 48 65 58 50 51 38 31 8 6 6 5 5 3 7 4 6 6 4 6 3 5 4 9 4 18 26 4 12 27 36 37 44
57 56 58 61 65 65 64 60 49 62 67 64 60 42 31 25 21 17 23 23 24 23 40 16 5 24 23 28 23 12 8 6 6 7 5 4 5 5 5 4 3 3 2 3 8 12 30 42 15 39 46 52 58 55
59 58 58 60 63 66 67 64 52 60 67 63 53 37 30 25 21 23 16 12 12 15 10 16 34 37 21 25 26 33 41 20 20 26 6 4 3 2 1 2 3 0 6 8 3 12 36 22 40 54 65 67 67 67
59 59 60 60 63 65 67 68 58 60 65 64 50 32 25 25 22 23 20 12 12 9 8 26 29 24 26 28 30 28 32 44 20 5 1 5 4 6 0 2 3 7 10 1 1 7 21 35 53 67 59 62 68 67
59 61 60 62 62 65 68 71 65 60 66 62 51 29 24 22 22 25 8 6 14 12 11 7 19 22 31 28 33 25 28 14 10 5 8 8 3 4 3 0 26 22 6 6 4 23 38 61 57 50 55 67 66 58
59 64 60 62 65 65 68 73 64 62 67 60 50 34 22 17 19 12 10 24 25 16 8 10 12 11 34 26 19 13 9 5 5 5 4 5 5 2 0 1 22 27 31 24 32 31 38 46 43 65 69 61 57 47
62 63 62 60 66 66 66 69 60 69 67 57 46 28 15 12 15 5 9 21 16 10 8 4 9 15 17 15 8 16 7 1 2 7 7 5 10 4 2 10 27 28 39 29 17 23 39 54 63 55 60 54 55 44
61 58 57 58 63 67 64 68 61 70 68 52 38 18 7 4 5 7 25 7 5 8 6 1 5 7 14 11 11 15 11 5 15 4 3 8 4 4 11 23 34 29 26 37 39 43 41 40 56 53 58 52 50 45
63 55 52 55 62 66 63 65 59 69 65 43 21 7 5 5 23 12 2 4 6 4 7 6 7 6 7 7 5 10 11 4 4 3 19 3 1 7 17 32 33 25 26 23 31 34 36 40 49 50 58 58 48 45
61 56 54 55 57 64 65 57 59 69 61 41 18 8 18 19 6 3 5 1 1 5 9 12 12 7 4 3 4 7 3 5 5 4 7 5 3 8 33 33 28 27 22 26 32 35 36 42 52 55 57 58 49 43
60 58 54 53 54 61 60 50 60 62 56 48 34 36 17 6 4 2 2 4 2 6 7 6 9 7 4 4 3 3 3 4 4 11 4 5 7 40 46 45 42 34 27 29 29 42 40 38 46 49 51 50 45 47
58 58 52 51 51 58 52 56 58 57 53 31 7 7 5 3 8 6 3 6 4 6 10 11 10 5 2 6 3 3 7 3 16 6 5 4 32 54 56 51 46 41 39 39 41 40 42 41 40 42 47 46 41 48
58 59 58 51 48 45 58 57 58 54 23 6 5 11 6 6 7 8 9 8 11 15 33 34 6 1 3 6 1 4 5 5 7 8 5 4 43 60 59 54 46 46 48 43 47 41 32 37 41 41 42 46 47 49
57 57 53 47 40 47 56 57 50 39 10 9 6 8 11 17 11 11 16 15 20 25 20 6 1 1 4 4 3 4 7 3 7 6 5 31 53 38 42 46 49 48 47 47 53 57 51 49 51 45 36 43 46 50
53 55 44 40 49 54 59 56 40 8 8 11 14 6 12 4 11 11 15 21 21 10 8 2 3 4 1 2 5 2 1 8 7 7 32 42 30 28 32 36 42 48 48 54 59 62 51 54 53 43 38 39 43 52
45 54 45 50 50 51 56 45 11 12 12 11 15 27 25 15 20 19 18 23 15 9 3 4 2 10 4 4 1 7 8 8 20 39 44 35 33 30 26 36 50 53 49 51 45 46 57 58 61 59 48 37 34 45
48 45 43 44 47 49 41 8 9 11 15 24 11 24 29 30 33 36 31 28 18 8 9 8 10 4 7 6 7 8 28 32 32 32 36 39 35 29 24 32 36 39 40 44 41 51 49 56 64 60 62 46 38 39
51 50 39 29 24 26 11 8 10 10 20 22 32 36 33 28 35 40 41 41 32 21 7 11 5 6 7 12 15 20 25 30 32 34 37 28 27 22 27 28 31 36 43 45 53 55 60 58 52 61 57 64 60 33
43 42 31 16 15 7 10 13 10 14 12 10 19 21 20 22 33 36 37 37 33 13 10 8 10 16 23 31 25 20 20 23 23 28 26 18 18 23 27 30 34 36 41 45 48 52 50 56 58 62 59 56 72 66
38 29 22 20 10 19 14 11 14 14 16 14 17 13 14 21 26 31 33 26 22 12 6 27 35 44 39 30 27 24 24 23 19 18 22 26 23 29 26 26 31 34 37 42 45 49 50 49 52 53 59 58 55 50
38 33 26 22 14 13 19 23 18 13 13 16 20 19 14 11 18 37 36 22 17 37 36 37 44 43 43 37 37 29 23 21 21 23 20 21 23 22 20 25 32 36 36 39 41 42 47 44 44 45 45 60 67 61
34 26 14 17 15 15 15 20 14 12 7 8 7 6 7 7 10 7 8 13 17 35 39 39 35 33 35 38 34 30 27 26 18 14 14 15 15 18 18 20 26 34 36 34 36 38 40 43 47 50 40 37 54 66
30 12 11 13 24 10 9 9 13 9 9 3 2 8 7 10 7 6 8 15 44 44 40 37 37 38 34 35 40 35 25 28 24 21 15 15 17 15 16 18 23 25 25 28 32 33 35 45 44 39 43 37 33 47
9 15 12 15 15 9 8 6 6 1 9 9 5 8 7 5 1 5 8 17 38 42 39 34 33 33 41 47 43 31 24 21 20 16 11 8 10 14 16 14 14 19 22 24 29 32 35 37 39 34 38 37 38 37
12 16 21 16 8 10 8 6 9 10 5 7 11 8 3 1 3 10 6 12 22 31 11 17 23 32 40 42 36 36 31 20 18 15 9 7 9 12 16 16 12 11 15 21 25 29 31 33 36 36 31 30 35 33
11 12 16 20 11 7 8 10 7 3 6 9 5 1 2 6 9 7 11 34 34 30 26 24 20 25 36 33 28 28 28 23 21 14 11 11 13 16 16 16 17 9 10 14 19 26 32 33 32 31 31 27 28 32
23 11 13 14 16 18 5 4 7 10 8 11 6 6 7 10 6 5 10 25 27 31 18 6 9 14 26 26 24 26 24 23 22 18 15 10 12 11 12 11 10 4 4 10 16 25 31 32 28 24 22 23 23 23
19 21 25 8 15 14 21 15 11 18 14 21 9 7 8 10 9 19 27 36 35 25 20 5 9 20 24 22 14 21 31 31 24 24 21 17 17 10 8 5 2 5 11 18 21 25 30 31 30 22 17 17 17 16
16 33 19 16 11 14 28 33 22 27 28 37 35 25 28 37 39 38 49 42 45 33 30 22 27 21 22 25 29 32 33 33 28 22 20 19 18 13 9 6 5 6 12 21 26 24 27 29 30 24 15 11 11 11
15 35 17 23 17 46 47 48 42 43 46 38 39 39 47 33 36 26 14 11 9 24 20 23 27 28 27 25 26 32 29 23 20 18 15 14 13 12 14 15 15 14 16 16 12 16 22 28 30 28 23 16 10 7
26 29 17 10 9 26 32 27 29 29 36 33 33 31 20 21 15 10 14 23 23 19 28 39 34 27 25 24 26 19 11 11 11 9 9 9 7 6 5 4 6 5 5 6 7 13 19 24 26 26 21 13 10 14
34 31 31 18 9 9 21 18 9 9 15 16 19 24 22 19 6 4 9 8 4 8 13 17 19 26 24 17 18 17 20 26 23 19 16 12 11 8 6 6 5 4 2 7 12 16 20 20 17 14 14 11 13 14
Wind_Direction_500mb
339 343 346 348 348 349 348 348 345 347 346 343 342 342 342 339 321 291 293 292 260 266 284 270 272 260 279 279 298 316 338 337 328 15 308 330 272 197 125 32 63 104 302 206 187 260 154 359 5 62 283 304 317 319
337 340 342 344 347 348 347 345 343 347 347 345 343 342 345 342 307 277 285 296 262 263 270 297 291 281 270 274 267 277 264 266 264 289 271 292 358 348 344 90 27 97 52 289 349 28 336 330 290 334 337 314 318 321
335 336 338 342 343 346 346 344 340 346 347 347 346 342 347 342 332 283 282 279 282 286 300 285 314 334 307 292 280 241 250 263 287 317 294 293 39 301 4 67 292 112 278 253 313 11 325 308 292 337 341 333 330 330
330 333 334 339 341 343 345 343 338 345 347 345 347 342 340 343 336 328 298 304 276 298 297 295 328 344 359 326 323 264 251 274 296 324 281 290 283 274 350 0 354 92 304 270 255 312 322 27 340 331 332 342 342 354
328 330 332 335 339 340 342 342 336 340 345 342 340 337 331 334 338 328 301 300 282 287 283 294 334 320 1 336 315 309 281 264 279 299 251 254 157 273 199 65 303 191 216 254 357 335 291 290 314 328 329 329 345 346
329 329 329 332 334 339 340 340 338 337 342 339 334 321 314 313 328 341 319 286 314 266 301 313 319 294 326 330 313 321 326 281 224 225 273 290 278 340 63 275 21 351 296 271 278 297 298 299 303 319 323 326 340 341
323 328 327 329 331 334 339 339 337 337 340 336 331 319 295 287 302 326 310 309 317 281 305 303 305 298 329 325 339 353 355 302 220 278 266 274 298 51 12 294 337 339 337 312 288 296 301 299 308 309 316 324 334 340
314 321 327 326 328 328 334 339 334 338 340 335 328 322 306 263 282 288 275 315 309 263 270 296 281 320 347 309 355 351 341 343 191 312 328 342 334 19 100 339 336 332 311 295 310 288 282 294 306 310 315 320 332 339
310 315 323 328 330 327 328 334 329 336 341 336 329 316 292 230 306 265 308 297 262 261 280 235 287 297 326 307 2 0 4 19 351 2 32 333 316 54 328 329 332 322 293 298 311 303 296 289 304 302 308 316 320 327
307 311 319 327 331 330 328 329 326 334 341 342 334 313 254 287 314 307 234 211 202 235 244 249 227 258 279 295 30 12 18 16 354 333 323 26 266 309 333 313 290 306 307 317 297 299 308 304 299 304 303 307 304 318
303 308 318 322 329 327 327 327 330 335 346 350 333 283 305 312 274 235 212 115 331 282 221 251 250 276 298 331 354 43 350 337 330 0 349 350 347 278 320 330 325 338 329 305 300 299 311 307 297 297 302 304 304 305
298 303 311 318 326 323 323 325 331 336 338 322 301 292 300 276 247 135 293 323 198 242 261 233 310 274 308 340 105 12 29 348 297 337 326 7 299 328 328 333 347 355 337 326 315 318 317 315 303 293 288 297 299 296
294 301 306 316 321 325 320 320 327 328 328 322 285 275 268 261 26 162 203 300 299 252 263 310 326 321 317 27 54 41 61 326 322 35 352 258 313 331 342 350 356 5 358 348 337 326 321 313 309 295 288 286 290 293
296 296 299 308 318 316 324 324 324 322 325 278 256 295 180 253 244 190 189 204 248 246 287 309 266 10 10 54 4 354 256 57 40 33 296 275 329 335 352 359 1 0 359 0 353 337 319 328 320 304 287 284 278 283
296 299 303 310 308 316 322 324 324 313 231 237 212 244 230 241 243 231 250 269 283 295 294 290 187 199 13 84 29 46 20 351 191 211 240 300 326 342 3 3 -0 359 4 1 3 352 346 340 330 315 289 273 271 269
301 305 310 318 316 314 320 321 324 264 229 231 230 251 237 286 270 244 239 273 315 293 302 202 111 58 28 130 69 147 357 224 248 223 275 308 329 338 349 350 352 351 354 2 10 8 356 357 350 332 306 280 264 263
297 296 310 314 313 316 319 312 269 219 234 229 244 228 235 263 247 251 273 291 299 286 241 114 56 220 104 44 279 188 211 222 259 291 305 314 324 324 334 348 350 352 356 3 5 7 11 9 8 10 349 322 283 256
288 300 310 319 319 328 323 263 235 241 244 240 232 246 235 241 251 257 265 279 276 230 183 211 135 123 194 196 262 235 237 275 284 299 316 317 313 314 323 341 353 5 7 10 7 5 3 12 15 5 4 355 323 292
292 292 305 317 321 338 300 263 238 262 248 257 259 259 255 264 263 263 262 268 270 253 228 177 152 199 226 215 227 258 272 279 289 305 311 321 332 345 341 345 352 1 6 9 10 11 13 15 14 15 7 354 1 337
289 290 296 282 276 297 274 267 246 261 265 259 262 262 255 253 271 271 266 257 258 208 184 195 209 229 229 246 239 254 278 286 286 302 309 315 342 345 351 356 4 5 5 6 11 16 16 15 23 13 13 14 18 13
297 296 290 277 242 216 255 269 248 249 274 261 278 269 265 253 258 261 262 248 210 216 226 225 242 270 273 252 247 246 264 265 263 292 289 308 313 324 331 348 356 2 7 9 10 13 19 22 17 20 21 19 8 4
283 291 291 275 224 217 249 238 236 291 275 267 284 264 240 244 243 250 258 206 227 246 242 250 260 271 261 251 237 239 254 253 266 281 274 282 309 312 324 345 353 2 4 6 6 9 16 11 14 13 28 30 32 22
286 289 253 216 218 228 253 226 226 218 234 265 295 273 257 249 242 257 237 234 242 247 245 247 259 268 270 259 226 229 238 245 254 268 263 298 293 297 302 330 345 351 354 1 5 5 4 6 8 11 20 29 28 36
267 235 228 222 207 253 245 232 216 237 236 260 216 269 253 235 268 243 248 254 269 263 256 260 263 268 260 233 218 223 237 233 244 253 260 283 296 309 299 318 333 343 349 355 357 5 5 360 11 13 23 32 34 42
209 226 209 229 219 227 230 245 228 143 238 204 211 267 271 257 236 264 242 269 271 266 266 273 263 268 239 225 215 221 212 213 228 232 237 284 304 316 321 316 318 333 348 356 3 5 6 3 14 25 25 29 29 46
217 217 192 202 215 208 220 233 216 220 195 202 231 248 259 112 288 254 248 291 312 317 295 295 284 240 224 217 219 207 201 216 220 226 251 288 312 319 315 298 294 315 351 7 6 7 11 12 13 19 27 23 33 38
224 247 221 219 223 233 269 254 259 256 221 214 240 286 125 221 246 255 322 5 342 323 298 288 265 233 220 213 201 199 208 219 228 246 252 264 295 309 302 293 292 308 1 18 17 16 15 12 11 17 25 32 29 31
220 218 201 202 205 216 241 222 216 215 226 215 172 192 213 210 235 295 340 357 357 358 327 213 182 201 209 214 203 213 220 216 216 217 223 243 289 290 293 300 286 314 15 35 18 11 9 11 10 10 21 38 40 38
212 207 196 213 212 222 213 207 217 222 208 177 184 225 243 234 250 297 289 277 311 323 323 273 183 189 188 200 235 235 221 216 220 215 217 226 231 228 262 284 228 300 352 356 355 0 6 8 10 10 14 21 39 38
233 196 190 206 200 222 227 222 239 252 247 237 243 252 264 273 280 288 296 274 257 270 295 281 286 274 250 252 238 212 214 208 212 226 241 227 215 214 224 224 245 287 312 324 334 341 358 6 3 359 4 13 12 23
190 186 214 228 241 248 250 259 260 264 261 255 256 257 264 268 277 286 278 284 265 245 252 231 223 230 242 236 219 212 206 210 209 208 202 192 198 225 249 258 267 285 304 302 321 340 349 352 354 354 351 353 12 30
198 192 201 212 251 262 242 243 246 242 249 245 248 246 231 204 219 233 253 260 257 248 239 238 245 237 231 221 191 186 204 189 188 209 239 247 247 250 248 247 240 247 271 287 332 352 354 349 343 342 355 12 56 78
216 218 218 243 264 240 243 217 228 254 204 205 223 220 201 192 140 61 16 1 261 226 205 181 166 153 155 160 172 193 270 282 260 243 253 259 252 233 228 226 212 196 266 321 341 348 351 347 346 1 12 61 95 92
Wind_Speed_850mb
55 58 62 66 65 63 62 55 51 57 65 67 65 52 32 21 17 21 29 28 24 18 49 38 30 25 24 21 7 18 15 5 5 10 5 5 5 4 3 3 5 4 1 5 4 5 2 36 14 14 13 30 36 39
55 57 60 63 65 63 62 57 50 61 65 66 64 49 32 22 14 20 25 14 16 26 48 65 58 50 51 38 31 8 6 6 5 5 3 7 4 6 6 4 6 3 5 4 9 4 18 26 4 12 27 36 37 44
57 56 58 61 65 65 64 60 49 62 67 64 60 42 31 25 21 17 23 23 24 23 40 16 5 24 23 28 23 12 8 6 6 7 5 4 5 5 5 4 3 3 2 3 8 12 30 42 15 39 46 52 58 55
59 58 58 60 63 66 67 64 52 60 67 63 53 37 30 25 21 23 16 12 12 15 10 16 34 37 21 25 26 33 41 20 20 26 6 4 3 2 1 2 3 0 6 8 3 12 36 22 40 54 65 67 67 67
59 59 60 60 63 65 67 68 58 60 65 64 50 32 25 25 22 23 20 12 12 9 8 26 29 24 26 28 30 28 32 44 20 5 1 5 4 6 0 2 3 7 10 1 1 7 21 35 53 67 59 62 68 67
59 61 60 62 62 65 68 71 65 60 66 62 51 29 24 22 22 25 8 6 14 12 11 7 19 22 31 28 33 25 28 14 10 5 8 8 3 4 3 0 26 22 6 6 4 23 38 61 57 50 55 67 66 58
59 64 60 62 65 65 68 73 64 62 67 60 50 34 22 17 19 12 10 24 25 16 8 10 12 11 34 26 19 13 9 5 5 5 4 5 5 2 0 1 22 27 31 24 32 31 38 46 43 65 69 61 57 47
62 63 62 60 66 66 66 69 60 69 67 57 46 28 15 12 15 5 9 21 16 10 8 4 9 15 17 15 8 16 7 1 2 7 7 5 10 4 2 10 27 28 39 29 17 23 39 54 63 55 60 54 55 44
61 58 57 58 63 67 64 68 61 70 68 52 38 18 7 4 5 7 25 7 5 8 6 1 5 7 14 11 11 15 11 5 15 4 3 8 4 4 11 23 34 29 26 37 39 43 41 40 56 53 58 52 50 45
63 55 52 55 62 66 63 65 59 69 65 43 21 7 5 5 23 12 2 4 6 4 7 6 7 6 7 7 5 10 11 4 4 3 19 3 1 7 17 32 33 25 26 23 31 34 36 40 49 50 58 58 48 45
61 56 54 55 57 64 65 57 59 69 61 41 18 8 18 19 6 3 5 1 1 5 9 12 12 7 4 3 4 7 3 5 5 4 7 5 3 8 33 33 28 27 22 26 32 35 36 42 52 55 57 58 49 43
60 58 54 53 54 61 60 50 60 62 56 48 34 36 17 6 4 2 2 4 2 6 7 6 9 7 4 4 3 3 3 4 4 11 4 5 7 40 46 45 42 34 27 29 29 42 40 38 46 49 51 50 45 47
58 58 52 51 51 58 52 56 58 57 53 31 7 7 5 3 8 6 3 6 4 6 10 11 10 5 2 6 3 3 7 3 16 6 5 4 32 54 56 51 46 41 39 39 41 40 42 41 40 42 47 46 41 48
58 59 58 51 48 45 58 57 58 54 23 6 5 11 6 6 7 8 9 8 11 15 33 34 6 1 3 6 1 4 5 5 7 8 5 4 43 60 59 54 46 46 48 43 47 41 32 37 41 41 42 46 47 49
57 57 53 47 40 47 56 57 50 39 10 9 6 8 11 17 11 11 16 15 20 25 20 6 1 1 4 4 3 4 7 3 7 6 5 31 53 38 42 46 49 48 47 47 53 57 51 49 51 45 36 43 46 50
53 55 44 40 49 54 59 56 40 8 8 11 14 6 12 4 11 11 15 21 21 10 8 2 3 4 1 2 5 2 1 8 7 7 32 42 30 28 32 36 42 48 48 54 59 62 51 54 53 43 38 39 43 52
45 54 45 50 50 51 56 45 11 12 12 11 15 27 25 15 20 19 18 23 15 9 3 4 2 10 4 4 1 7 8 8 20 39 44 35 33 30 26 36 50 53 49 51 45 46 57 58 61 59 48 37 34 45
48 45 43 44 47 49 41 8 9 11 15 24 11 24 29 30 33 36 31 28 18 8 9 8 10 4 7 6 7 8 28 32 32 32 36 39 35 29 24 32 36 39 40 44 41 51 49 56 64 60 62 46 38 39
51 50 39 29 24 26 11 8 10 10 20 22 32 36 33 28 35 40 41 41 32 21 7 11 5 6 7 12 15 20 25 30 32 34 37 28 27 22 27 28 31 36 43 45 53 55 60 58 52 61 57 64 60 33
43 42 31 16 15 7 10 13 10 14 12 10 19 21 20 22 33 36 37 37 33 13 10 8 10 16 23 31 25 20 20 23 23 28 26 18 18 23 27 30 34 36 41 45 48 52 50 56 58 62 59 56 72 66
38 29 22 20 10 19 14 11 14 14 16 14 17 13 14 21 26 31 33 26 22 12 6 27 35 44 39 30 27 24 24 23 19 18 22 26 23 29 26 26 31 34 37 42 45 49 50 49 52 53 59 58 55 50
38 33 26 22 14 13 19 23 18 13 13 16 20 19 14 11 18 37 36 22 17 37 36 37 44 43 43 37 37 29 23 21 21 23 20 21 23 22 20 25 32 36 36 39 41 42 47 44 44 45 45 60 67 61
34 26 14 17 15 15 15 20 14 12 7 8 7 6 7 7 10 7 8 13 17 35 39 39 35 33 35 38 34 30 27 26 18 14 14 15 15 18 18 20 26 34 36 34 36 38 40 43 47 50 40 37 54 66
30 12 11 13 24 10 9 9 13 9 9 3 2 8 7 10 7 6 8 15 44 44 40 37 37 38 34 35 40 35 25 28 24 21 15 15 17 15 16 18 23 25 25 28 32 33 35 45 44 39 43 37 33 47
9 15 12 15 15 9 8 6 6 1 9 9 5 8 7 5 1 5 8 17 38 42 39 34 33 33 41 47 43 31 24 21 20 16 11 8 10 14 16 14 14 19 22 24 29 32 35 37 39 34 38 37 38 37
12 16 21 16 8 10 8 6 9 10 5 7 11 8 3 1 3 10 6 12 22 31 11 17 23 32 40 42 36 36 31 20 18 15 9 7 9 12 16 16 12 11 15 21 25 29 31 33 36 36 31 30 35 33
11 12 16 20 11 7 8 10 7 3 6 9 5 1 2 6 9 7 11 34 34 30 26 24 20 25 36 33 28 28 28 23 21 14 11 11 13 16 16 16 17 9 10 14 19 26 32 33 32 31 31 27 28 32
23 11 13 14 16 18 5 4 7 10 8 11 6 6 7 10 6 5 10 25 27 31 18 6 9 14 26 26 24 26 24 23 22 18 15 10 12 11 12 11 10 4 4 10 16 25 31 32 28 24 22 23 23 23
19 21 25 8 15 14 21 15 11 18 14 21 9 7 8 10 9 19 27 36 35 25 20 5 9 20 24 22 14 21 31 31 24 24 21 17 17 10 8 5 2 5 11 18 21 25 30 31 30 22 17 17 17 16
16 33 19 16 11 14 28 33 22 27 28 37 35 25 28 37 39 38 49 42 45 33 30 22 27 21 22 25 29 32 33 33 28 22 20 19 18 13 9 6 5 6 12 21 26 24 27 29 30 24 15 11 11 11
15 35 17 23 17 46 47 48 42 43 46 38 39 39 47 33 36 26 14 11 9 24 20 23 27 28 27 25 26 32 29 23 20 18 15 14 13 12 14 15 15 14 16 16 12 16 22 28 30 28 23 16 10 7
26 29 17 10 9 26 32 27 29 29 36 33 33 31 20 21 15 10 14 23 23 19 28 39 34 27 25 24 26 19 11 11 11 9 9 9 7 6 5 4 6 5 5 6 7 13 19 24 26 26 21 13 10 14
34 31 31 18 9 9 21 18 9 9 15 16 19 24 22 19 6 4 9 8 4 8 13 17 19 26 24 17 18 17 20 26 23 19 16 12 11 8 6 6 5 4 2 7 12 16 20 20 17 14 14 11 13 14
Wind_Direction_850mb
339 343 346 348 348 349 348 348 345 347 346 343 342 342 342 339 321 291 293 292 260 266 284 270 272 260 279 279 298 316 338 337 328 15 308 330 272 197 125 32 63 104 302 206 187 260 154 359 5 62 283 304 317 319
337 340 342 344 347 348 347 345 343 347 347 345 343 342 345 342 307 277 285 296 262 263 270 297 291 281 270 274 267 277 264 266 264 289 271 292 358 348 344 90 27 97 52 289 349 28 336 330 290 334 337 314 318 321
335 336 338 342 343 346 346 344 340 346 347 347 346 342 347 342 332 283 282 279 282 286 300 285 314 334 307 292 280 241 250 263 287 317 294 293 39 301 4 67 292 112 278 253 313 11 325 308 292 337 341 333 330 330
330 333 334 339 341 343 345 343 338 345 347 345 347 342 340 343 336 328 298 304 276 298 297 295 328 344 359 326 323 264 251 274 296 324 281 290 283 274 350 0 354 92 304 270 255 312 322 27 340 331 332 342 342 354
328 330 332 335 339 340 342 342 336 340 345 342 340 337 331 334 338 328 301 300 282 287 283 294 334 320 1 336 315 309 281 264 279 299 251 254 157 273 199 65 303 191 216 254 357 335 291 290 314 328 329 329 345 346
329 329 329 332 334 339 340 340 338 337 342 339 334 321 314 313 328 341 319 286 314 266 301 313 319 294 326 330 313 321 326 281 224 225 273 290 278 340 63 275 21 351 296 271 278 297 298 299 303 319 323 326 340 341
323 328 327 329 331 334 339 339 337 337 340 336 331 319 295 287 302 326 310 309 317 281 305 303 305 298 329 325 339 353 355 302 220 278 266 274 298 51 12 294 337 339 337 312 288 296 301 299 308 309 316 324 334 340
314 321 327 326 328 328 334 339 334 338 340 335 328 322 306 263 282 288 275 315 309 263 270 296 281 320 347 309 355 351 341 343 191 312 328 342 334 19 100 339 336 332 311 295 310 288 282 294 306 310 315 320 332 339
310 315 323 328 330 327 328 334 329 336 341 336 329 316 292 230 306 265 308 297 262 261 280 235 287 297 326 307 2 0 4 19 351 2 32 333 316 54 328 329 332 322 293 298 311 303 296 289 304 302 308 316 320 327
307 311 319 327 331 330 328 329 326 334 341 342 334 313 254 287 314 307 234 211 202 235 244 249 227 258 279 295 30 12 18 16 354 333 323 26 266 309 333 313 290 306 307 317 297 299 308 304 299 304 303 307 304 318
303 308 318 322 329 327 327 327 330 335 346 350 333 283 305 312 274 235 212 115 331 282 221 251 250 276 298 331 354 43 350 337 330 0 349 350 347 278 320 330 325 338 329 305 300 299 311 307 297 297 302 304 304 305
298 303 311 318 326 323 323 325 331 336 338 322 301 292 300 276 247 135 293 323 198 242 261 233 310 274 308 340 105 12 29 348 297 337 326 7 299 328 328 333 347 355 337 326 315 318 317 315 303 293 288 297 299 296
294 301 306 316 321 325 320 320 327 328 328 322 285 275 268 261 26 162 203 300 299 252 263 310 326 321 317 27 54 41 61 326 322 35 352 258 313 331 342 350 356 5 358 348 337 326 321 313 309 295 288 286 290 293
296 296 299 308 318 316 324 324 324 322 325 278 256 295 180 253 244 190 189 204 248 246 287 309 266 10 10 54 4 354 256 57 40 33 296 275 329 335 352 359 1 0 359 0 353 337 319 328 320 304 287 284 278 283
296 299 303 310 308 316 322 324 324 313 231 237 212 244 230 241 243 231 250 269 283 295 294 290 187 199 13 84 29 46 20 351 191 211 240 300 326 342 3 3 -0 359 4 1 3 352 346 340 330 315 289 273 271 269
301 305 310 318 316 314 320 321 324 264 229 231 230 251 237 286 270 244 239 273 315 293 302 202 111 58 28 130 69 147 357 224 248 223 275 308 329 338 349 350 352 351 354 2 10 8 356 357 350 332 306 280 264 263
297 296 310 314 313 316 319 312 269 219 234 229 244 228 235 263 247 251 273 291 299 286 241 114 56 220 104 44 279 188 211 222 259 291 305 314 324 324 334 348 350 352 356 3 5 7 11 9 8 10 349 322 283 256
288 300 310 319 319 328 323 263 235 241 244 240 232 246 235 241 251 257 265 279 276 230 183 211 135 123 194 196 262 235 237 275 284 299 316 317 313 314 323 341 353 5 7 10 7 5 3 12 15 5 4 355 323 292
292 292 305 317 321 338 300 263 238 262 248 257 259 259 255 264 263 263 262 268 270 253 228 177 152 199 226 215 227 258 272 279 289 305 311 321 332 345 341 345 352 1 6 9 10 11 13 15 14 15 7 354 1 337
289 290 296 282 276 297 274 267 246 261 265 259 262 262 255 253 271 271 266 257 258 208 184 195 209 229 229 246 239 254 278 286 286 302 309 315 342 345 351 356 4 5 5 6 11 16 16 15 23 13 13 14 18 13
297 296 290 277 242 216 255 269 248 249 274 261 278 269 265 253 258 261 262 248 210 216 226 225 242 270 273 252 247 246 264 265 263 292 289 308 313 324 331 348 356 2 7 9 10 13 19 22 17 20 21 19 8 4
283 291 291 275 224 217 249 238 236 291 275 267 284 264 240 244 243 250 258 206 227 246 242 250 260 271 261 251 237 239 254 253 266 281 274 282 309 312 324 345 353 2 4 6 6 9 16 11 14 13 28 30 32 22
286 289 253 216 218 228 253 226 226 218 234 265 295 273 257 249 242 257 237 234 242 247 245 247 259 268 270 259 226 229 238 245 254 268 263 298 293 297 302 330 345 351 354 1 5 5 4 6 8 11 20 29 28 36
267 235 228 222 207 253 245 232 216 237 236 260 216 269 253 235 268 243 248 254 269 263 256 260 263 268 260 233 218 223 237 233 244 253 260 283 296 309 299 318 333 343 349 355 357 5 5 360 11 13 23 32 34 42
209 226 209 229 219 227 230 245 228 143 238 204 211 267 271 257 236 264 242 269 271 266 266 273 263 268 239 225 215 221 212 213 228 232 237 284 304 316 321 316 318 333 348 356 3 5 6 3 14 25 25 29 29 46
217 217 192 202 215 208 220 233 216 220 195 202 231 248 259 112 288 254 248 291 312 317 295 295 284 240 224 217 219 207 201 216 220 226 251 288 312 319 315 298 294 315 351 7 6 7 11 12 13 19 27 23 33 38
224 247 221 219 223 233 269 254 259 256 221 214 240 286 125 221 246 255 322 5 342 323 298 288 265 233 220 213 201 199 208 219 228 246 252 264 295 309 302 293 292 308 1 18 17 16 15 12 11 17 25 32 29 31
220 218 201 202 205 216 241 222 216 215 226 215 172 192 213 210 235 295 340 357 357 358 327 213 182 201 209 214 203 213 220 216 216 217 223 243 289 290 293 300 286 314 15 35 18 11 9 11 10 10 21 38 40 38
212 207 196 213 212 222 213 207 217 222 208 177 184 225 243 234 250 297 289 277 311 323 323 273 183 189 188 200 235 235 221 216 220 215 217 226 231 228 262 284 228 300 352 356 355 0 6 8 10 10 14 21 39 38
233 196 190 206 200 222 227 222 239 252 247 237 243 252 264 273 280 288 296 274 257 270 295 281 286 274 250 252 238 212 214 208 212 226 241 227 215 214 224 224 245 287 312 324 334 341 358 6 3 359 4 13 12 23
190 186 214 228 241 248 250 259 260 264 261 255 256 257 264 268 277 286 278 284 265 245 252 231 223 230 242 236 219 212 206 210 209 208 202 192 198 225 249 258 267 285 304 302 321 340 349 352 354 354 351 353 12 30
198 192 201 212 251 262 242 243 246 242 249 245 248 246 231 204 219 233 253 260 257 248 239 238 245 237 231 221 191 186 204 189 188 209 239 247 247 250 248 247 240 247 271 287 332 352 354 349 343 342 355 12 56 78
216 218 218 243 264 240 243 217 228 254 204 205 223 220 201 192 140 61 16 1 261 226 205 181 166 153 155 160 172 193 270 282 260 243 253 259 252 233 228 226 212 196 266 321 341 348 351 347 346 1 12 61 95 92